TimeEST,TemperatureF,Dew PointF,Humidity,Sea Level PressureIn,VisibilityMPH,Wind Direction,Wind SpeedMPH,Gust SpeedMPH,PrecipitationIn,Events,Conditions,WindDirDegrees,DateUTC
12:20 AM,28.4,17.6,64,30.00,10.0,WNW,9.2,16.1,N/A,,Overcast,300,2013-02-04 05:20:00
12:40 AM,28.4,17.6,64,30.00,10.0,WNW,11.5,21.9,N/A,,Overcast,290,2013-02-04 05:40:00
1:00 AM,28.4,15.8,59,30.01,10.0,WNW,19.6,27.6,N/A,,Overcast,290,2013-02-04 06:00:00
1:20 AM,26.6,14.0,59,30.02,10.0,WNW,18.4,25.3,N/A,,Overcast,300,2013-02-04 06:20:00
1:45 AM,26.6,15.8,64,30.02,10.0,NW,10.4,18.4,N/A,,Overcast,320,2013-02-04 06:45:00
2:05 AM,26.6,14.0,59,30.03,10.0,WNW,16.1,21.9,N/A,,Overcast,290,2013-02-04 07:05:00
2:25 AM,24.8,12.2,59,30.04,10.0,WNW,12.7,21.9,N/A,,Overcast,300,2013-02-04 07:25:00
2:45 AM,24.8,12.2,59,30.04,10.0,NW,13.8,21.9,N/A,,Scattered Clouds,310,2013-02-04 07:45:00
3:10 AM,24.8,14.0,64,30.04,10.0,NW,11.5,-,N/A,,Mostly Cloudy,320,2013-02-04 08:10:00
3:30 AM,24.8,14.0,64,30.04,10.0,NW,10.4,-,N/A,,Overcast,320,2013-02-04 08:30:00
3:50 AM,24.8,14.0,64,30.04,10.0,NNW,6.9,-,N/A,,Overcast,330,2013-02-04 08:50:00
5:50 AM,24.8,14.0,64,30.06,10.0,NW,11.5,-,N/A,,Overcast,310,2013-02-04 10:50:00
6:45 AM,24.8,12.2,59,30.07,10.0,NW,9.2,-,N/A,,Mostly Cloudy,310,2013-02-04 11:45:00
7:52 AM,24.8,12.2,59,30.10,10.0,WNW,12.7,18.4,N/A,,Mostly Cloudy,290,2013-02-04 12:52:00
8:45 AM,26.6,14.0,59,30.11,10.0,WNW,9.2,17.3,N/A,,Mostly Cloudy,300,2013-02-04 13:45:00
9:46 AM,26.6,15.8,64,30.12,10.0,WNW,11.5,-,N/A,,Mostly Cloudy,290,2013-02-04 14:46:00
10:55 AM,32.0,17.6,55,30.10,10.0,WNW,6.9,-,N/A,,Mostly Cloudy,300,2013-02-04 15:55:00
11:55 AM,33.8,15.8,48,30.07,10.0,West,9.2,-,N/A,,Scattered Clouds,280,2013-02-04 16:55:00
12:50 PM,32.0,17.6,55,30.05,10.0,WSW,11.5,-,N/A,,Mostly Cloudy,240,2013-02-04 17:50:00
1:45 PM,33.8,17.6,52,30.02,10.0,WSW,11.5,-,N/A,,Scattered Clouds,240,2013-02-04 18:45:00
2:50 PM,35.6,17.6,48,29.99,10.0,SW,6.9,-,N/A,,Mostly Cloudy,230,2013-02-04 19:50:00
3:52 PM,35.6,17.6,48,29.99,10.0,SW,6.9,-,N/A,,Overcast,220,2013-02-04 20:52:00
4:50 PM,35.6,19.4,52,29.98,10.0,SSW,9.2,-,N/A,,Mostly Cloudy,200,2013-02-04 21:50:00
5:52 PM,32.0,19.4,60,29.97,10.0,SSE,3.5,-,N/A,,Scattered Clouds,160,2013-02-04 22:52:00
6:50 PM,30.2,19.4,64,29.97,10.0,South,3.5,-,N/A,,Overcast,170,2013-02-04 23:50:00
7:55 PM,32.0,19.4,60,29.96,10.0,South,4.6,-,N/A,,Overcast,180,2013-02-05 00:55:00
8:10 PM,32.0,21.2,64,29.96,10.0,South,4.6,-,N/A,,Overcast,170,2013-02-05 01:10:00
8:30 PM,32.0,21.2,64,29.96,10.0,SSE,4.6,-,N/A,,Overcast,160,2013-02-05 01:30:00
8:55 PM,32.0,21.2,64,29.96,10.0,SSE,4.6,-,N/A,,Overcast,160,2013-02-05 01:55:00
9:15 PM,32.0,21.2,64,29.96,10.0,SSW,9.2,-,N/A,,Overcast,200,2013-02-05 02:15:00
9:35 PM,32.0,23.0,69,29.95,7.0,SSW,10.4,-,N/A,,Overcast,210,2013-02-05 02:35:00
9:55 PM,32.0,24.8,75,29.95,10.0,SSW,8.1,-,N/A,,Overcast,200,2013-02-05 02:55:00
10:20 PM,32.0,26.6,80,29.94,10.0,SSW,3.5,-,N/A,,Overcast,210,2013-02-05 03:20:00
10:40 PM,32.0,26.6,80,29.93,10.0,Calm,Calm,-,N/A,,Overcast,0,2013-02-05 03:40:00
11:00 PM,32.0,26.6,80,29.93,10.0,Calm,Calm,-,N/A,,Overcast,0,2013-02-05 04:00:00
11:20 PM,32.0,24.8,75,29.93,10.0,Calm,Calm,-,N/A,,Overcast,0,2013-02-05 04:20:00
11:45 PM,32.0,26.6,80,29.92,10.0,Calm,Calm,-,N/A,,Overcast,0,2013-02-05 04:45:00